Temperature
19 18 18 18 17 16 17 18 18 17 16 17 17 16 15 15 14 14 14 14 13 13 12 12 12 12 11 11 11 11 11 11 11 11 11 11 11 11 12 12 12 12 12 12
19 18 18 18 17 17 17 17 17 17 17 17 16 16 15 15 15 15 14 14 13 13 13 12 12 12 11 11 11 11 11 11 11 11 11 11 11 11 11 12 12 12 12 12
21 18 18 20 20 18 18 18 18 17 18 17 17 16 16 15 15 15 14 14 14 13 13 13 12 12 11 11 11 11 10 10 10 10 11 10 11 11 11 11 11 11 11 11
20 20 20 21 19 19 19 18 18 18 18 17 17 16 15 15 15 15 14 14 14 13 13 13 12 12 11 11 11 11 10 10 10 10 10 10 11 11 10 10 11 11 11 11
21 21 21 20 18 18 18 19 19 18 18 17 16 16 16 15 15 14 14 14 14 13 13 13 12 12 12 12 11 11 10 10 10 10 10 10 10 10 10 10 10 10 10 10
20 20 22 21 20 18 19 20 20 18 18 17 16 18 18 16 15 14 14 14 14 13 13 13 13 12 12 12 11 11 10 10 10 10 10 10 10 10 10 10 10 9 10 10
20 21 22 21 18 18 19 22 20 18 18 17 17 19 17 15 15 14 14 14 14 13 13 13 13 12 12 12 11 11 11 10 10 10 10 10 10 10 9 9 9 9 9 9
20 20 21 18 17 19 21 20 19 18 18 17 17 16 15 15 15 14 14 14 14 14 13 13 13 13 12 12 11 11 11 11 10 10 10 10 10 10 9 9 9 9 9 9
21 22 20 18 19 19 19 19 19 18 17 17 16 16 15 15 15 14 14 14 14 14 13 13 13 13 12 12 11 11 11 11 10 10 10 10 10 9 9 9 9 9 9 9
21 22 20 17 18 17 17 18 18 18 17 17 16 16 15 15 15 15 14 14 14 14 14 13 13 13 12 12 12 11 11 10 10 10 10 10 10 9 9 9 9 9 9 9
21 22 19 17 17 17 17 17 17 17 17 16 16 16 16 15 15 15 15 15 15 14 14 14 13 13 13 12 12 11 11 11 10 10 10 10 10 10 9 9 9 9 9 8
23 23 22 21 19 18 17 17 17 17 16 16 16 16 16 16 15 15 15 15 15 14 14 14 13 13 13 13 12 12 11 11 11 10 10 10 10 9 9 9 9 9 9 9
22 20 20 20 20 19 18 17 17 17 17 16 16 16 16 16 15 15 15 15 15 15 14 14 14 13 13 13 12 12 12 11 11 11 10 10 10 10 9 9 9 9 9 9
19 19 19 19 19 19 18 18 17 17 17 16 16 16 16 16 15 15 15 15 15 15 15 14 14 14 14 13 13 12 12 12 11 11 11 10 10 10 10 9 9 9 9 10
20 19 19 19 19 19 18 17 17 17 17 16 16 16 16 16 16 16 16 16 15 15 15 15 14 14 14 14 13 13 12 12 12 11 11 11 10 10 10 10 10 9 9 9
20 20 18 18 18 18 18 17 17 17 17 16 16 16 16 16 16 16 16 16 15 15 15 15 15 14 14 14 14 13 13 13 12 12 11 11 11 11 10 10 10 10 9 9
19 18 18 18 18 18 18 17 17 17 17 16 16 16 16 16 16 16 16 16 16 15 15 15 15 15 15 14 14 13 13 13 13 12 12 11 11 11 11 11 10 10 10 10
20 21 20 21 20 19 18 18 17 17 17 17 16 16 16 16 16 16 16 16 15 15 15 15 15 15 15 14 14 13 13 13 13 12 12 12 12 11 11 11 11 10 10 10
18 19 20 20 20 19 19 18 18 17 17 16 16 16 16 16 16 16 15 15 15 15 15 15 15 15 14 14 14 14 13 13 13 13 12 12 12 12 12 11 11 11 11 11
17 18 18 19 20 19 19 18 18 17 17 16 16 16 15 15 15 15 15 15 15 15 15 15 15 15 14 14 14 14 13 13 13 13 13 13 12 12 12 12 12 12 11 11
15 16 17 18 19 19 19 18 18 17 17 16 16 16 15 15 15 15 15 15 15 15 15 15 15 15 14 14 14 13 13 13 13 13 13 13 13 12 12 12 12 12 12 12
13 14 15 16 17 18 18 18 18 18 17 17 16 16 15 15 15 15 15 15 15 15 15 15 15 14 14 14 14 14 13 13 13 13 13 13 13 13 13 12 12 12 12 12
11 12 13 14 15 16 17 18 18 17 17 17 16 16 15 15 15 15 15 15 15 15 15 15 15 14 14 14 13 13 13 13 13 13 13 13 13 13 13 13 13 13 13 13
9 10 11 13 13 14 15 16 17 17 17 16 16 16 15 15 15 15 15 15 15 15 15 15 14 14 14 14 13 13 13 13 13 13 13 13 13 13 13 13 13 13 13 13
7 8 9 10 11 12 13 14 15 16 16 16 16 15 15 15 15 15 15 15 15 15 14 14 14 14 14 13 13 13 13 13 13 13 13 13 13 13 13 13 13 13 13 13
6 7 7 7 8 10 11 12 13 14 15 15 15 15 15 15 15 15 15 15 15 14 14 14 14 14 14 13 13 13 13 13 13 13 13 13 13 13 13 13 13 13 13 13
6 6 6 7 7 8 9 9 10 11 13 13 14 15 15 15 15 15 15 15 14 14 14 14 14 14 13 13 13 13 13 13 13 13 13 13 13 13 13 13 13 13 13 13
Wind_Speed
5 4 2 2 3 4 4 2 2 1 2 1 1 1 3 4 6 7 8 9 10 10 9 9 10 10 10 10 10 10 11 11 11 11 11 11 11 11 11 11 11 10 10 10
4 3 3 5 6 7 6 4 4 4 4 3 2 2 2 3 5 6 7 8 8 9 8 8 9 9 10 10 10 10 10 11 10 11 11 11 11 11 11 11 11 11 11 11
2 2 5 7 8 11 7 7 7 6 4 5 4 3 2 2 4 5 6 7 7 7 7 7 8 8 9 9 9 9 10 10 10 11 11 11 11 11 11 11 11 11 11 10
2 3 3 3 3 7 9 8 10 6 5 6 5 2 2 2 3 4 5 5 6 6 6 6 6 6 7 7 8 9 9 10 10 10 10 10 11 11 10 10 10 10 10 10
3 4 4 3 5 7 8 7 12 12 9 8 5 4 4 3 2 3 4 4 5 5 4 4 5 5 6 7 7 8 9 9 9 9 10 10 10 10 9 9 9 9 9 10
3 4 3 2 7 7 5 5 10 14 13 11 9 5 4 4 2 1 2 3 3 3 3 3 4 4 4 6 7 7 7 8 8 8 9 9 10 9 8 7 8 8 9 9
7 5 5 4 9 10 6 0 10 15 14 13 11 4 5 4 2 1 1 2 2 2 2 3 3 3 4 6 6 6 5 6 7 7 8 8 8 8 8 8 8 8 8 8
5 6 4 11 12 10 3 4 10 14 14 14 10 6 6 5 3 2 1 0 1 1 1 1 1 2 3 4 4 4 4 5 6 6 7 7 8 8 8 8 8 8 8 8
6 4 2 14 9 7 4 6 10 13 14 14 12 10 8 6 5 3 1 0 0 0 0 1 1 1 2 3 3 3 3 4 4 5 5 6 7 7 7 8 7 7 7 7
7 10 9 13 12 8 8 7 10 13 14 14 13 11 10 7 6 4 3 1 1 1 1 1 1 1 1 3 3 3 2 2 2 3 4 5 5 6 6 7 7 7 7 7
9 8 6 11 17 15 12 9 11 13 14 15 14 12 11 9 7 5 4 3 2 2 1 1 1 1 2 3 4 3 2 2 1 2 2 3 4 4 5 6 6 6 6 7
7 6 7 5 12 19 17 15 15 16 16 15 14 13 12 9 7 6 5 4 3 3 3 2 2 2 3 3 4 3 2 1 1 0 1 2 2 2 2 1 3 4 6 7
4 2 5 2 5 16 19 18 17 17 17 16 14 13 12 10 8 7 7 6 5 4 4 3 3 2 3 4 5 4 3 2 2 2 1 1 2 3 2 3 4 3 4 6
10 5 6 7 7 13 18 18 17 18 17 16 15 13 12 11 10 9 8 7 6 5 5 4 4 3 3 3 5 5 4 3 3 3 2 2 2 2 2 3 2 2 4 4
14 14 9 5 7 12 16 17 18 18 18 17 15 15 14 13 12 11 9 8 7 7 6 6 5 5 4 4 5 5 4 4 4 3 3 3 2 2 2 1 2 1 1 3
11 14 13 11 11 14 17 19 20 20 19 18 17 16 15 14 12 10 10 9 9 9 8 7 7 5 5 5 5 5 4 4 4 4 4 3 3 3 2 2 1 1 1 1
11 12 15 17 17 17 20 21 21 21 20 20 19 17 16 14 13 12 11 11 10 8 8 8 7 6 6 6 6 5 5 5 8 6 5 4 4 4 3 3 3 2 1 1
17 16 16 17 18 18 20 21 21 21 20 20 19 18 17 17 16 14 13 11 10 10 9 9 8 8 7 7 6 5 5 5 6 6 6 6 5 5 5 4 4 4 3 3
17 18 16 16 16 17 18 20 21 21 20 20 20 19 19 18 16 15 13 13 12 12 11 10 10 10 9 8 6 5 6 6 6 6 6 6 6 6 6 6 6 5 5 4
15 16 16 16 15 15 16 17 18 19 19 20 20 20 19 18 17 15 14 13 12 10 9 8 10 11 10 9 8 7 7 7 7 7 6 7 7 7 7 7 7 6 6 6
15 14 15 15 15 15 14 15 16 18 19 20 21 21 20 18 17 15 14 13 13 12 10 10 9 9 9 8 9 8 7 7 7 7 7 7 7 8 7 7 7 7 7 7
15 13 13 14 14 14 13 13 14 16 18 19 20 20 19 18 17 16 16 13 11 11 10 9 10 10 10 9 8 8 8 8 7 7 7 7 7 7 8 8 8 7 7 7
15 14 12 11 13 13 12 12 14 15 16 18 19 20 19 16 14 14 13 12 10 12 10 9 10 12 13 10 9 9 9 9 8 8 7 7 7 7 8 8 8 7 8 8
17 15 13 10 8 9 11 11 11 11 13 14 16 17 17 14 13 13 11 10 12 13 11 11 13 14 14 10 10 10 10 9 9 8 8 8 7 7 8 8 8 8 8 9
19 17 16 13 8 6 6 6 8 9 10 9 11 13 12 11 11 10 10 10 11 11 9 10 14 15 12 11 11 11 10 10 9 8 8 8 8 8 8 8 8 8 8 8
17 15 14 13 12 10 7 4 3 4 5 6 7 7 8 7 8 7 7 9 11 11 9 8 9 11 11 11 11 11 11 10 9 9 10 9 10 9 9 9 10 9 8 9
14 13 13 13 13 13 11 8 6 4 2 2 4 4 5 6 6 7 8 7 8 8 8 8 8 9 10 10 10 11 11 10 10 10 10 10 9 9 10 11 9 9 8 8
Wind_Direction
95 109 158 208 207 212 241 277 273 179 215 210 193 330 343 346 355 2 9 13 13 15 18 20 22 22 24 25 26 27 32 33 32 34 36 38 39 39 41 39 38 38 41 43
162 184 239 254 230 220 229 229 227 220 227 195 201 246 299 346 357 2 6 10 10 14 17 19 23 24 25 25 26 30 35 35 33 33 34 36 37 38 39 38 37 38 39 40
202 202 261 257 223 210 213 212 212 217 192 173 199 222 280 333 343 353 0 4 6 11 16 17 21 23 26 26 28 33 37 36 33 34 34 34 35 36 36 38 39 38 37 36
255 238 258 92 118 200 217 222 216 218 189 191 201 213 259 289 318 340 356 357 0 4 13 18 23 25 29 33 35 39 38 36 32 31 34 34 35 35 32 35 38 37 35 35
263 275 274 190 188 191 211 235 213 210 201 193 191 219 211 198 270 324 339 343 348 351 360 15 23 20 27 40 43 43 38 34 33 33 33 31 32 31 30 31 35 37 36 33
248 274 263 138 156 173 202 246 196 198 195 187 191 206 158 150 195 295 330 341 346 346 358 26 31 23 29 41 45 45 40 38 37 36 32 30 29 26 29 32 32 36 40 36
242 259 264 139 149 165 206 52 164 185 188 186 195 186 125 151 178 227 317 346 339 348 24 30 27 25 39 47 52 52 49 47 43 40 38 33 29 28 29 34 35 36 42 40
217 235 252 149 163 196 222 116 167 179 183 185 187 168 164 178 184 197 205 359 344 355 55 49 21 23 56 60 67 72 69 61 52 43 38 36 35 32 33 32 36 36 37 38
225 248 62 178 195 206 200 181 177 178 180 181 183 184 187 189 189 191 203 201 314 322 129 105 76 22 58 95 115 112 94 76 63 56 46 38 36 35 35 34 33 33 32 30
253 253 231 211 216 210 205 198 183 180 178 181 185 186 187 190 191 194 199 201 223 217 188 119 99 99 86 135 161 157 123 97 77 58 51 47 37 33 33 30 28 28 27 24
247 255 232 223 217 210 202 198 185 182 182 185 186 187 189 191 194 196 196 198 211 213 186 156 152 152 154 172 187 186 161 143 112 65 40 33 44 35 30 43 29 13 16 16
237 225 211 214 206 202 197 195 189 184 185 189 191 190 191 193 192 194 198 198 200 197 200 191 178 168 168 187 204 212 199 185 183 174 6 359 12 74 126 38 51 28 18 8
251 200 213 203 197 194 196 195 192 190 189 189 193 194 193 193 192 195 200 204 204 198 199 196 191 186 177 192 209 220 223 210 211 235 263 307 342 356 40 155 171 111 53 36
224 207 211 214 205 194 196 195 193 194 194 194 193 193 195 195 194 198 203 203 201 200 202 202 203 196 188 198 209 219 224 208 221 228 254 278 310 333 352 6 40 102 117 89
217 217 226 213 196 190 192 192 194 197 196 196 194 194 196 198 200 202 201 199 201 206 206 207 211 204 195 206 216 217 217 216 216 227 237 254 268 283 301 333 6 34 83 135
215 214 221 218 206 194 192 196 199 200 198 197 196 199 200 202 203 201 199 199 205 210 209 210 215 207 200 211 218 222 217 210 230 230 231 236 243 255 265 278 303 328 341 28
210 210 212 216 214 206 202 202 204 203 201 201 201 200 199 200 202 203 203 205 214 220 215 216 216 204 204 216 224 227 224 205 204 232 236 238 243 250 254 256 266 278 276 144
233 234 222 217 212 208 207 207 208 208 205 203 201 200 200 202 206 207 206 205 210 219 222 221 215 206 209 218 226 233 229 228 223 229 232 234 241 245 249 251 253 254 248 191
250 244 238 229 222 213 209 207 208 209 207 203 202 203 205 208 210 210 206 204 210 218 220 214 202 212 215 215 220 227 234 235 234 234 235 229 237 244 242 244 246 246 243 233
270 253 243 233 222 217 213 210 207 208 207 204 204 205 208 210 211 210 207 211 215 218 213 198 197 211 217 211 204 229 233 236 240 240 238 240 240 242 241 241 243 243 241 237
293 270 249 235 224 216 214 209 205 206 205 204 205 207 209 209 209 209 210 217 221 214 207 191 204 211 214 206 201 226 231 235 238 242 242 241 243 243 243 242 240 241 242 240
314 294 267 245 230 221 214 209 206 205 203 204 207 209 209 210 209 211 214 220 222 190 195 203 210 210 204 197 213 221 227 233 238 241 244 246 247 247 246 246 245 244 243 242
331 319 298 267 244 233 219 211 207 205 204 204 205 207 209 210 208 209 216 216 216 192 197 207 204 192 187 205 219 222 226 231 236 240 243 246 249 251 252 251 249 247 246 243
350 345 333 312 277 247 229 219 212 209 207 207 208 209 209 210 212 215 221 200 194 189 204 206 196 192 196 214 221 225 229 231 234 240 244 247 249 251 253 254 253 250 248 247
358 358 358 353 339 312 283 253 223 213 209 208 209 208 211 213 213 209 209 208 190 189 205 204 201 201 206 218 222 226 230 231 233 236 241 245 247 250 252 252 252 254 252 250
359 359 359 1 0 351 341 321 267 227 211 207 204 203 204 205 209 203 198 198 198 198 206 204 199 200 211 218 222 227 231 232 228 232 239 243 247 247 250 251 254 254 255 254
355 357 357 359 0 358 356 356 355 352 322 226 201 192 195 195 195 197 197 195 194 198 203 204 203 204 210 214 219 225 229 232 233 234 237 239 243 246 248 251 252 254 255 255
Height
1571 1572 1573 1574 1576 1577 1575 1572 1572 1574 1575 1574 1576 1577 1577 1577 1575 1573 1571 1568 1566 1563 1560 1557 1553 1550 1547 1544 1541 1538 1535 1533 1530 1528 1525 1523 1521 1519 1517 1515 1514 1513 1512 1511
1571 1573 1573 1572 1573 1574 1575 1574 1573 1574 1574 1573 1575 1576 1576 1575 1574 1573 1571 1569 1567 1564 1561 1559 1556 1553 1550 1547 1544 1542 1539 1536 1533 1531 1529 1526 1524 1522 1520 1518 1516 1515 1514 1513
1565 1570 1571 1566 1562 1567 1568 1568 1569 1570 1569 1571 1573 1575 1575 1574 1574 1573 1571 1569 1567 1565 1563 1560 1558 1555 1552 1550 1547 1545 1542 1539 1537 1534 1532 1529 1527 1525 1523 1521 1519 1517 1516 1515
1564 1568 1567 1558 1559 1561 1563 1564 1565 1566 1568 1571 1572 1574 1574 1574 1573 1572 1571 1569 1568 1566 1564 1562 1559 1557 1554 1552 1550 1547 1545 1542 1540 1538 1535 1533 1530 1528 1526 1524 1522 1520 1518 1517
1563 1561 1556 1556 1558 1560 1562 1560 1560 1563 1566 1569 1571 1572 1572 1572 1572 1572 1571 1569 1568 1566 1564 1562 1560 1558 1557 1554 1552 1550 1547 1545 1543 1541 1538 1536 1533 1531 1528 1527 1525 1523 1521 1519
1564 1563 1557 1551 1554 1558 1561 1556 1553 1558 1562 1566 1569 1567 1568 1571 1571 1571 1570 1569 1567 1566 1565 1563 1561 1559 1558 1556 1554 1552 1550 1548 1546 1543 1541 1539 1536 1534 1531 1529 1527 1526 1524 1522
1562 1559 1548 1548 1554 1558 1560 1548 1550 1554 1558 1563 1565 1565 1568 1569 1570 1570 1569 1568 1567 1566 1565 1563 1562 1561 1560 1558 1556 1554 1551 1550 1548 1546 1544 1541 1539 1536 1534 1532 1530 1528 1526 1525
1557 1557 1551 1549 1552 1552 1546 1547 1549 1552 1556 1560 1563 1566 1567 1568 1569 1569 1569 1568 1567 1566 1565 1564 1562 1562 1561 1559 1557 1555 1553 1552 1550 1548 1546 1544 1541 1539 1537 1535 1533 1531 1529 1527
1547 1543 1541 1544 1543 1545 1545 1546 1548 1551 1555 1558 1561 1564 1566 1567 1568 1568 1568 1567 1566 1566 1565 1564 1563 1562 1561 1560 1558 1557 1555 1554 1552 1551 1548 1546 1544 1542 1540 1537 1535 1534 1532 1530
1542 1536 1539 1540 1541 1542 1544 1545 1547 1550 1553 1556 1559 1562 1564 1565 1566 1567 1567 1566 1566 1565 1565 1564 1563 1562 1561 1560 1559 1558 1557 1556 1554 1553 1551 1549 1546 1544 1542 1540 1538 1536 1534 1533
1536 1532 1534 1534 1535 1537 1540 1543 1545 1548 1551 1554 1557 1559 1561 1563 1564 1565 1565 1565 1565 1565 1564 1564 1563 1562 1561 1560 1559 1559 1558 1557 1556 1554 1553 1551 1549 1546 1544 1542 1540 1538 1536 1535
1528 1525 1527 1527 1527 1531 1536 1539 1542 1545 1548 1551 1554 1556 1559 1561 1562 1563 1563 1564 1564 1563 1563 1563 1562 1562 1560 1560 1559 1559 1559 1558 1557 1555 1554 1552 1551 1549 1546 1544 1542 1540 1538 1536
1523 1523 1524 1524 1525 1527 1530 1534 1538 1542 1545 1548 1551 1553 1556 1558 1559 1560 1561 1561 1562 1562 1562 1562 1561 1561 1560 1559 1558 1558 1558 1558 1557 1556 1555 1553 1552 1551 1549 1546 1544 1542 1540 1538
1519 1520 1521 1521 1522 1523 1527 1531 1535 1539 1542 1545 1547 1550 1552 1554 1556 1557 1558 1559 1559 1560 1560 1560 1559 1559 1558 1558 1557 1557 1557 1556 1556 1555 1554 1554 1552 1551 1550 1548 1547 1544 1542 1540
1513 1515 1518 1518 1519 1520 1523 1527 1531 1534 1537 1540 1543 1545 1548 1550 1552 1553 1555 1556 1556 1557 1557 1557 1557 1557 1556 1556 1556 1556 1556 1555 1555 1554 1553 1553 1552 1551 1550 1548 1547 1545 1543 1541
1508 1510 1512 1513 1515 1516 1519 1521 1525 1528 1531 1534 1537 1540 1543 1546 1548 1550 1551 1552 1553 1554 1554 1554 1554 1554 1554 1554 1554 1554 1553 1553 1553 1553 1553 1552 1551 1551 1550 1549 1548 1546 1545 1543
1505 1504 1504 1506 1508 1510 1512 1515 1518 1522 1526 1529 1532 1535 1538 1541 1543 1545 1546 1548 1549 1550 1550 1551 1551 1551 1551 1551 1551 1551 1551 1551 1550 1550 1551 1551 1550 1550 1549 1548 1547 1546 1545 1543
1498 1498 1499 1500 1501 1503 1506 1509 1512 1516 1519 1523 1527 1530 1532 1534 1537 1539 1541 1543 1544 1545 1546 1546 1547 1547 1547 1548 1548 1548 1548 1548 1548 1548 1548 1548 1548 1548 1547 1546 1546 1545 1544 1542
1490 1491 1493 1494 1496 1498 1499 1502 1505 1509 1513 1517 1520 1522 1525 1528 1531 1534 1536 1537 1538 1540 1541 1542 1542 1543 1543 1544 1544 1544 1544 1545 1545 1545 1545 1545 1544 1545 1544 1544 1543 1543 1542 1541
1484 1484 1485 1487 1489 1491 1493 1495 1498 1502 1505 1509 1512 1516 1518 1521 1525 1527 1529 1530 1532 1534 1536 1537 1537 1538 1539 1539 1539 1540 1540 1540 1540 1541 1541 1541 1541 1541 1541 1541 1540 1540 1539 1539
1479 1479 1479 1480 1482 1484 1486 1489 1491 1494 1497 1500 1504 1507 1511 1515 1518 1520 1522 1524 1526 1529 1530 1531 1532 1533 1534 1534 1535 1535 1535 1536 1536 1536 1536 1536 1537 1537 1537 1537 1537 1536 1536 1536
1476 1475 1474 1474 1476 1477 1480 1482 1484 1487 1490 1492 1496 1500 1504 1507 1510 1512 1514 1517 1521 1522 1523 1525 1526 1527 1528 1529 1530 1530 1531 1531 1531 1531 1532 1532 1532 1532 1532 1533 1532 1532 1532 1532
1475 1472 1471 1470 1471 1473 1474 1476 1478 1480 1482 1485 1488 1492 1496 1499 1502 1504 1507 1510 1513 1515 1517 1518 1520 1521 1523 1523 1524 1525 1525 1526 1526 1526 1527 1527 1527 1527 1527 1527 1527 1527 1527 1527
1475 1471 1469 1468 1468 1469 1469 1470 1472 1474 1477 1479 1482 1486 1489 1492 1495 1497 1501 1504 1506 1508 1510 1512 1514 1515 1516 1517 1518 1519 1520 1520 1521 1521 1521 1521 1521 1521 1522 1522 1522 1522 1522 1522
1478 1474 1470 1468 1467 1466 1467 1467 1468 1469 1472 1474 1476 1479 1482 1485 1488 1491 1494 1497 1499 1501 1503 1505 1507 1508 1509 1511 1512 1513 1514 1514 1515 1515 1515 1516 1516 1516 1516 1516 1516 1516 1516 1516
1482 1478 1475 1472 1469 1466 1465 1464 1465 1465 1467 1469 1471 1473 1476 1479 1482 1484 1487 1489 1492 1494 1497 1499 1500 1502 1503 1504 1505 1506 1507 1508 1509 1509 1509 1510 1510 1510 1510 1510 1510 1510 1510 1510
1483 1481 1478 1475 1472 1469 1467 1465 1464 1464 1464 1465 1467 1468 1471 1473 1476 1478 1481 1483 1485 1488 1490 1492 1494 1495 1496 1498 1499 1500 1501 1501 1502 1503 1503 1503 1503 1504 1504 1504 1504 1504 1504 1503